DIRECTV 15              
1 40663U 15026A   19266.03799231 -.00000106  00000-0  00000+0 0  9998
2 40663   0.0009 172.4795 0001413  16.3080  84.3948  1.00201349 15879
SKY MEXICO-1            
1 40664U 15026B   19266.06624212 -.00000244  00000-0  00000+0 0  9991
2 40664   0.0182 165.7454 0001972  22.2483 118.7276  1.00271315 15889
ARIANE 5 R/B            
1 40665U 15026C   19265.51180135  .00004551  00000-0  81309-3 0  9991
2 40665   3.9496  67.9008 7192164  99.4145 341.3809  2.40525695 37181
ARIANE 5 DEB [SYLDA]    
1 40666U 15026D   19264.39017828  .00020259  00000-0  25792-2 0  9991
2 40666   3.9383 238.9259 6522013 114.7604 323.9615  3.30700177 45286